Theta_e
315 319 322 324 323 322 320 319 320 321 322 324 328 329 325 323 324 324 324 316 308 314 322 319 316 316 315 315 312 311 311 309 309 311 311 314 314 315 315 316 316 316 317 317 316 316 315 314 313 313 313 312 312 312 312 312 312 313 313 313 312 312 312 312 314 315 318 321 321 325 330 327 324 325 325 326 325 324 324 322 320 321 323 324 323 322
316 321 323 324 319 318 319 318 319 320 321 323 324 322 322 323 324 321 319 315 310 314 322 319 316 317 315 314 311 309 310 309 310 310 311 313 314 315 316 316 317 316 316 316 316 316 315 315 314 313 313 313 312 312 311 312 312 312 312 313 312 313 312 313 314 314 319 324 321 322 327 324 324 328 327 327 327 325 324 322 319 319 322 322 321 322
319 323 323 317 312 313 318 317 317 319 319 324 324 320 322 323 322 321 318 315 313 314 322 322 317 316 315 314 311 309 309 311 312 313 313 315 314 314 315 316 316 316 317 316 316 316 316 316 315 314 313 313 313 312 311 311 312 312 312 312 312 313 312 314 317 316 320 325 321 321 325 322 323 328 328 327 325 323 323 322 319 319 320 320 320 320
322 325 320 311 310 316 320 316 317 318 318 322 323 321 324 322 320 323 320 316 314 314 318 319 316 315 314 314 314 311 310 311 313 314 314 315 314 314 315 315 315 316 316 316 316 316 316 316 315 315 314 314 313 312 312 311 312 312 312 312 312 313 313 314 317 317 320 324 322 322 324 322 324 327 326 326 324 323 324 322 319 319 320 320 319 319
322 321 311 309 313 319 321 318 318 320 320 321 321 320 322 322 320 321 320 318 318 317 315 316 319 322 320 319 318 314 311 311 312 313 314 315 316 316 314 314 314 315 316 316 316 316 315 315 315 316 315 314 313 313 313 311 312 312 312 312 312 313 314 315 316 317 322 325 322 322 322 321 324 327 325 324 323 323 322 320 318 320 320 318 318 319
320 314 310 314 316 317 321 321 321 322 322 324 323 321 320 321 321 319 319 319 323 326 318 314 323 332 330 327 323 320 321 322 316 311 313 317 318 315 314 316 317 317 317 316 316 315 315 315 315 315 314 314 314 314 313 312 311 311 312 312 312 312 313 315 315 316 320 322 318 320 323 322 324 325 323 321 321 322 320 317 318 320 319 318 318 319
318 312 314 322 318 316 319 319 321 320 320 324 322 320 318 317 318 318 318 319 326 329 316 312 321 330 328 324 321 323 327 326 319 313 313 316 318 317 316 318 319 318 318 317 316 316 315 315 314 314 314 315 314 314 313 311 310 310 311 311 311 312 312 313 313 314 317 318 318 322 324 323 322 321 322 321 322 321 318 317 319 319 319 318 318 318
317 315 317 322 321 320 318 319 321 317 321 326 320 318 319 317 318 319 318 320 324 323 317 316 321 323 323 321 320 320 321 321 319 317 315 313 316 317 317 319 319 318 318 318 317 317 316 316 316 315 315 314 314 313 312 311 310 310 311 311 311 311 312 312 312 315 318 319 320 322 322 321 321 321 322 322 320 318 316 317 319 318 318 318 317 317
315 320 319 318 321 320 321 326 322 316 321 324 314 315 319 318 320 319 319 320 319 319 321 321 319 321 326 326 323 319 319 323 324 322 318 314 315 316 317 318 318 318 317 317 318 317 317 316 315 315 314 313 312 312 312 311 310 310 310 310 310 310 312 312 313 316 320 322 323 322 320 321 322 322 321 320 318 316 316 317 319 317 317 318 317 317
312 316 315 316 320 320 323 323 316 316 320 315 310 315 318 319 321 322 322 323 321 321 323 323 320 321 325 326 325 322 322 326 325 323 319 314 314 317 317 318 317 317 317 318 318 318 317 316 314 313 312 312 311 311 312 311 310 309 309 310 310 310 311 313 313 314 317 319 320 319 320 321 321 320 319 319 318 316 316 317 317 316 317 317 316 317
311 310 311 314 317 316 319 314 309 313 315 310 316 324 323 323 323 324 324 322 323 325 321 322 323 321 323 325 326 324 325 328 324 321 320 315 315 317 318 318 318 318 318 318 319 318 317 316 314 313 312 311 311 310 311 310 309 309 309 310 310 310 311 312 312 311 313 316 317 318 320 319 318 318 319 320 319 317 317 317 316 316 316 316 316 316
313 314 314 313 312 312 317 315 310 309 309 314 327 328 323 326 324 324 325 323 325 326 320 319 319 318 322 325 325 323 323 326 321 320 324 320 317 318 319 318 318 318 318 318 318 318 317 317 316 314 313 311 310 310 310 310 309 309 309 310 310 310 311 311 311 311 313 318 319 319 319 317 317 319 320 320 318 316 317 316 316 316 316 316 315 312
316 319 316 312 311 313 320 321 315 312 312 318 327 325 323 326 324 324 325 323 325 323 316 314 317 317 319 321 321 321 321 322 316 314 318 316 316 319 319 318 317 317 317 317 317 317 317 317 317 316 314 313 311 311 310 310 309 309 309 309 309 310 310 311 312 312 312 315 317 316 317 317 319 320 320 319 317 315 317 316 316 317 317 315 312 306
319 319 316 315 314 313 317 321 319 319 317 318 322 323 325 325 326 330 327 321 321 320 314 312 317 319 319 320 321 319 317 317 314 312 313 314 315 318 318 318 318 317 317 317 317 317 317 316 316 316 315 314 312 312 311 310 309 309 309 309 308 309 310 311 312 312 312 314 316 316 317 319 319 318 318 317 315 316 317 316 315 317 316 313 307 302
319 318 317 317 316 315 316 317 321 323 317 317 321 322 324 327 328 332 330 324 322 323 317 313 317 324 325 324 320 314 311 312 313 314 314 314 314 315 316 317 317 317 318 318 318 317 317 316 316 315 314 314 313 312 311 310 309 309 309 309 308 309 310 310 310 312 313 315 318 318 318 319 318 317 316 315 315 317 317 315 315 317 315 309 304 301
316 319 320 315 313 315 316 314 317 320 317 317 320 320 322 324 321 319 321 321 321 322 321 318 320 325 324 321 316 313 313 313 311 311 312 314 315 314 314 315 317 318 318 317 318 317 317 316 315 315 314 313 312 311 311 310 310 310 309 309 309 309 309 309 310 312 314 316 318 318 318 317 315 315 315 315 317 318 317 315 315 316 313 306 301 299
317 320 318 312 313 313 313 313 314 315 317 317 318 320 319 316 316 318 317 314 314 319 322 321 323 325 323 321 319 318 322 320 315 312 311 313 315 313 313 316 317 318 318 317 317 317 317 317 316 315 314 313 313 312 311 311 310 310 310 309 309 309 308 309 310 312 314 317 318 317 317 315 313 314 315 316 317 316 316 315 315 315 311 303 300 299
319 321 317 313 316 312 308 312 311 309 314 320 320 319 316 314 319 323 321 321 320 322 323 321 322 325 323 322 321 319 320 321 319 317 312 311 313 312 314 317 318 318 318 317 317 317 317 317 316 315 314 313 313 312 311 311 310 310 310 309 309 309 308 309 311 312 312 315 317 316 316 313 312 314 316 316 315 313 313 314 315 313 308 302 299 298
318 319 318 312 315 313 309 313 316 310 311 317 319 317 317 322 324 322 321 325 325 323 325 322 319 320 321 322 323 322 323 325 322 320 317 314 311 311 315 319 319 319 318 318 318 317 316 317 316 315 315 313 312 312 310 310 309 309 309 309 309 309 309 309 311 311 311 313 315 315 314 312 312 315 316 315 313 311 312 313 313 311 306 301 299 297
317 316 319 312 311 313 313 316 320 317 312 312 314 313 317 322 323 322 321 322 324 325 326 324 321 320 320 321 324 321 325 331 328 325 323 316 311 313 317 319 319 319 319 318 318 317 317 316 316 315 314 313 312 311 310 309 309 309 309 309 309 309 309 309 310 311 312 313 315 315 313 311 313 315 314 314 312 311 312 312 312 310 305 299 298 297
316 315 318 315 310 314 318 317 317 318 315 315 317 316 317 318 318 321 320 319 324 327 328 326 322 321 323 322 323 321 322 325 325 328 325 315 312 317 319 318 319 319 318 319 318 317 317 316 315 315 314 313 312 311 310 309 309 309 309 309 309 309 309 309 310 311 312 314 316 314 312 311 313 314 313 312 311 311 312 311 310 309 303 298 297 297
317 317 320 319 315 316 320 317 314 316 316 316 318 318 317 317 318 320 318 318 320 322 325 325 321 320 324 321 319 322 323 318 316 320 320 314 314 318 319 318 319 319 318 319 318 317 317 316 316 315 314 313 312 311 311 310 309 309 309 309 309 309 309 309 310 311 312 314 315 313 312 312 312 312 312 312 311 311 312 310 309 307 302 298 297 296
317 320 321 321 318 317 317 312 307 311 316 315 316 318 317 316 318 320 320 320 320 319 319 320 321 321 321 318 318 322 320 313 310 311 311 313 317 318 318 318 319 318 318 318 318 318 317 317 316 315 314 314 312 312 311 310 309 309 309 309 308 309 309 308 309 311 312 313 314 312 311 313 313 312 312 311 310 311 311 309 307 305 300 297 296 296
316 319 319 320 322 320 318 314 308 308 313 315 316 317 317 316 317 321 323 321 321 322 320 319 322 320 316 317 314 310 308 308 308 310 309 312 318 319 318 319 319 318 318 318 317 318 317 317 317 316 315 315 313 312 311 310 310 309 308 308 308 309 309 308 309 310 311 312 312 310 311 313 313 312 311 310 310 310 310 308 306 303 299 296 296 296
316 320 319 319 322 321 319 319 315 312 312 315 318 318 317 317 317 319 320 319 320 323 321 320 321 318 318 321 314 309 313 313 309 312 313 313 316 318 318 319 319 319 319 318 317 317 317 317 317 317 316 315 314 313 311 310 310 309 308 308 308 309 309 308 308 309 310 311 310 309 311 313 313 313 312 310 310 311 310 307 304 302 298 296 296 295
317 320 318 317 319 319 318 320 319 317 314 315 319 319 316 317 318 317 318 319 320 320 320 319 319 318 321 323 318 317 321 320 313 311 313 315 316 317 318 319 319 319 319 318 317 317 317 317 317 317 317 316 314 313 312 310 310 309 308 308 308 308 308 308 308 308 309 309 308 309 310 312 312 313 312 311 311 311 309 306 303 300 297 295 295 295
321 321 317 316 318 317 317 321 320 318 317 316 318 318 316 316 316 317 318 319 320 320 320 318 318 319 321 322 323 321 321 325 322 313 311 314 316 316 317 319 319 319 319 318 318 317 318 318 318 318 317 316 315 313 312 311 310 309 308 308 308 307 307 308 308 308 308 307 307 308 309 311 312 312 312 311 311 310 308 304 302 299 296 295 295 294
323 321 317 318 318 315 318 322 319 318 319 318 317 317 316 315 315 317 318 318 320 321 320 318 318 319 319 320 324 325 325 328 324 313 311 316 317 316 318 319 319 319 319 318 318 317 318 318 318 318 318 317 315 313 313 312 310 309 308 308 307 307 307 307 307 307 307 307 307 307 308 310 311 311 311 310 310 309 306 302 300 297 295 294 294 294
322 320 318 320 319 316 317 319 318 319 319 318 317 317 316 315 315 316 317 317 318 319 319 319 321 320 318 318 320 321 321 321 319 316 316 317 316 317 318 318 319 319 318 319 318 318 318 318 318 318 317 317 315 314 313 312 311 310 309 308 307 306 307 307 307 307 306 306 307 307 307 309 310 310 310 309 309 308 305 301 298 296 294 294 294 294
318 319 319 319 319 318 317 318 319 319 318 317 317 316 316 315 315 315 316 316 317 318 318 318 321 320 317 318 320 317 315 315 316 317 316 315 316 317 317 317 318 318 318 318 318 318 318 318 318 318 317 317 316 315 314 313 312 312 310 309 307 306 306 306 306 307 306 306 306 307 307 308 309 310 309 309 309 308 305 300 297 296 294 294 294 293
315 318 319 318 318 319 318 317 318 318 317 317 317 316 315 315 315 315 315 316 316 317 317 317 319 318 316 318 319 315 313 315 315 315 314 315 317 317 316 317 317 318 318 318 318 318 318 318 318 318 318 317 317 316 315 314 312 311 311 310 308 307 306 305 306 306 306 306 306 307 307 307 308 309 309 309 309 308 306 302 297 295 294 293 293 293
315 317 319 318 317 319 318 318 318 317 317 316 316 316 316 315 315 315 315 316 316 317 317 317 317 317 316 318 317 314 313 314 313 312 313 315 316 316 316 317 317 317 318 317 318 318 318 317 318 317 318 318 317 317 315 314 312 311 311 311 309 307 306 305 305 305 305 306 306 307 307 307 307 308 309 309 308 308 307 304 300 296 294 293 293 293
317 316 316 317 318 319 318 318 318 317 317 317 316 316 316 315 315 316 315 315 315 316 317 317 317 316 317 319 319 318 319 316 312 313 314 315 315 316 315 316 316 316 317 317 317 317 317 317 317 317 317 317 317 316 315 313 311 311 310 310 308 307 306 305 305 304 304 305 306 306 307 307 307 308 309 309 309 309 308 307 304 299 296 294 293 293
317 316 315 315 318 319 317 317 318 318 318 319 318 316 316 315 315 316 316 315 314 315 315 316 317 316 317 318 318 318 319 318 315 315 316 315 315 315 315 315 316 316 316 316 316 316 317 316 316 317 317 317 317 316 314 312 310 309 309 308 307 306 305 304 304 304 304 304 304 305 306 307 307 308 309 309 310 309 308 307 306 303 299 295 293 293
316 315 314 314 316 318 317 316 319 320 319 320 322 320 317 315 315 315 316 315 314 314 315 315 316 316 315 316 315 314 314 315 315 315 316 315 314 314 314 315 315 316 316 316 316 316 316 316 316 316 316 316 316 315 313 311 310 309 308 308 307 306 304 304 303 303 303 303 303 304 305 306 307 308 308 309 309 308 307 306 305 304 302 297 294 292
316 314 314 314 315 317 317 318 320 320 319 320 324 322 318 316 316 316 316 315 314 314 315 314 315 315 315 314 313 313 313 313 314 314 314 314 314 314 315 315 315 316 315 315 315 315 315 315 315 315 315 315 314 314 313 312 310 309 308 307 306 304 304 303 302 302 302 302 302 303 304 305 306 307 307 308 307 306 306 305 304 303 301 299 295 292
316 315 314 315 316 317 318 319 319 320 319 320 322 320 317 317 317 317 317 317 315 314 314 314 314 314 314 313 313 313 312 312 313 313 313 313 314 315 315 315 315 315 314 314 314 314 314 314 314 314 314 313 313 313 312 311 309 308 306 305 304 303 303 302 301 301 301 301 301 302 302 303 305 306 306 306 306 305 304 304 302 300 299 297 295 293
315 315 315 316 316 316 318 320 319 320 321 320 319 318 315 314 315 316 318 318 318 315 313 313 314 314 313 313 312 311 312 313 315 314 312 313 315 314 314 314 314 314 314 314 314 313 313 312 312 312 312 312 312 311 310 309 307 306 305 304 303 302 302 301 301 301 301 301 301 301 301 302 304 305 305 304 304 304 303 302 300 298 297 296 295 293
314 314 314 315 316 316 317 319 320 321 321 320 320 320 316 312 313 316 318 319 319 316 313 312 314 314 313 312 311 311 313 315 316 314 312 313 314 313 313 314 313 313 314 313 313 313 312 311 311 311 311 311 310 309 308 307 306 305 304 303 302 302 301 301 301 301 300 300 300 301 301 302 303 303 303 303 302 301 300 299 298 297 297 296 295 294
313 313 313 314 316 317 317 318 319 320 320 321 321 318 313 310 313 318 320 321 318 314 312 312 312 313 312 311 311 313 314 316 315 313 311 311 312 312 313 313 312 313 313 312 312 311 311 310 310 310 309 309 308 307 306 306 305 305 304 303 302 302 301 301 300 300 300 300 300 300 300 301 301 301 301 300 300 299 298 298 297 298 298 297 297 296
313 313 313 314 316 316 316 318 319 318 320 321 316 310 308 311 316 320 322 320 313 311 312 312 312 313 313 312 311 312 313 313 313 311 310 310 311 311 312 312 312 312 311 311 310 309 309 309 308 308 307 307 307 307 306 306 305 305 303 302 302 301 300 300 299 299 299 299 299 299 299 299 299 299 298 298 298 297 297 297 297 297 297 297 297 296
314 314 315 315 315 315 316 318 317 318 320 317 310 305 308 316 321 319 316 314 312 311 313 313 314 315 315 313 312 312 312 311 311 310 310 310 310 310 311 311 310 310 309 309 308 308 307 307 307 307 307 307 306 306 305 305 305 304 302 301 300 299 299 298 298 297 297 297 297 297 297 297 297 297 297 297 297 297 297 296 296 296 296 295 295 294
315 315 315 315 315 316 316 316 317 319 318 313 309 309 312 317 318 315 312 311 311 313 314 314 315 315 315 313 312 312 311 310 310 310 309 309 309 309 309 309 309 309 309 308 308 308 308 308 308 308 308 307 306 305 305 304 303 302 302 300 299 299 298 298 297 297 297 297 297 297 297 297 297 297 297 297 296 296 296 295 295 295 295 294 294 293
315 316 317 316 316 316 317 318 319 318 315 311 312 314 314 313 312 312 313 311 310 311 313 314 314 314 314 312 312 312 311 310 310 309 309 309 308 308 308 308 308 309 309 309 309 308 308 309 309 308 307 307 306 305 304 303 303 302 301 301 300 300 299 299 299 298 299 299 299 299 299 298 298 297 297 296 296 295 295 294 294 293 293 292 292 291
315 314 313 314 316 316 316 316 314 311 308 309 311 311 311 311 311 310 312 312 310 311 312 313 313 313 313 312 311 311 310 310 309 308 308 307 307 307 307 308 308 308 308 308 308 307 307 307 307 307 306 305 304 303 303 302 302 302 302 301 301 300 300 300 300 299 299 299 299 298 298 297 296 296 295 294 294 293 293 292 292 291 291 291 290 290
312 308 307 311 315 315 312 310 308 306 305 306 307 306 308 310 310 309 309 311 311 312 311 311 312 312 312 311 311 310 310 309 308 307 306 306 306 306 306 306 306 305 306 306 305 305 305 305 305 305 304 304 302 302 302 301 300 301 301 301 300 300 299 299 299 298 298 297 296 296 295 295 295 294 294 293 293 292 292 292 291 291 291 290 290 290
311 307 307 311 314 315 315 314 312 309 305 305 305 305 305 306 307 307 308 309 310 310 309 309 310 310 310 310 310 310 309 307 307 306 305 305 305 305 305 305 304 304 304 304 304 303 303 303 303 303 303 302 301 300 301 300 299 299 299 299 298 298 298 297 297 296 296 296 296 295 295 295 294 294 294 294 293 293 292 292 292 291 291 291 290 290
312 308 310 313 313 313 315 313 307 303 302 303 304 305 305 305 305 306 306 307 308 308 307 307 307 308 309 309 309 309 308 306 306 306 305 304 304 303 303 303 303 303 303 302 301 301 301 301 301 300 300 300 299 298 298 298 298 298 297 297 297 297 296 296 296 296 296 295 295 295 294 294 294 293 293 293 293 292 292 292 292 291 291 291 290 290
309 308 310 313 312 311 312 309 303 303 305 306 303 303 303 303 303 304 304 305 306 306 306 306 306 307 308 308 307 307 306 305 305 305 304 303 303 302 302 301 301 301 300 299 298 298 298 298 297 297 297 297 297 297 297 297 297 296 296 296 296 295 295 295 294 294 294 293 293 293 292 292 292 292 291 291 291 291 291 291 290 290 290 290 290 290
307 310 311 311 311 311 313 311 307 309 313 311 306 304 303 302 303 304 304 304 305 306 306 306 306 306 306 306 306 306 306 305 304 303 303 303 302 301 300 299 299 298 297 297 296 296 296 296 296 296 295 295 295 296 296 296 296 295 295 295 294 293 293 293 292 292 292 291 291 291 291 291 291 291 290 290 290 290 290 290 290 290 290 290 290 290
308 311 311 311 312 313 311 310 308 309 312 312 309 307 306 305 305 306 306 306 306 305 305 305 305 305 305 304 304 304 304 304 302 302 302 301 300 299 298 297 297 296 296 295 295 295 295 295 295 294 294 294 294 295 295 294 294 294 293 293 292 292 292 291 291 291 291 291 291 291 291 291 291 290 290 290 290 290 290 290 290 290 290 290 290 290
Wind_Speed
3 3 2 5 7 7 8 7 6 5 6 6 5 3 3 4 5 5 4 5 1 2 6 7 7 11 12 10 15 19 13 13 20 23 27 30 30 32 32 34 35 35 35 32 30 30 30 31 31 31 30 30 31 31 32 30 28 26 23 23 23 22 23 24 25 26 26 27 25 28 31 28 27 28 28 28 25 23 23 21 21 23 23 22 20 18
4 3 7 10 8 7 6 6 6 6 5 5 5 1 2 3 6 6 3 4 1 3 5 5 5 11 12 11 15 16 10 13 21 23 27 31 32 35 37 38 38 37 37 35 34 33 32 33 32 31 32 31 32 32 33 32 30 28 25 24 24 23 24 24 26 25 25 29 27 28 31 27 25 30 31 28 24 22 23 24 21 19 21 21 20 22
2 4 11 9 6 6 4 6 7 6 5 4 3 2 3 3 4 6 4 5 1 3 4 5 5 10 12 12 15 18 16 20 27 28 31 33 33 36 38 39 39 38 38 38 37 36 35 35 33 33 33 32 32 32 33 33 31 29 26 26 25 24 25 24 26 25 26 32 29 27 29 25 25 31 28 25 24 24 25 25 20 17 19 19 19 21
2 6 10 7 10 8 4 5 7 5 3 3 3 3 3 3 2 4 4 4 1 1 2 4 6 8 10 10 13 20 21 22 28 32 36 38 38 41 40 38 38 39 40 39 38 37 36 36 35 35 35 34 34 33 34 35 33 32 29 28 27 26 26 25 28 27 29 33 29 27 28 26 28 29 25 24 26 24 23 24 20 18 20 19 20 20
6 6 2 7 9 8 6 4 7 5 3 3 5 6 4 4 6 6 4 4 3 3 2 3 6 6 7 9 10 11 10 14 23 27 32 38 41 43 41 39 40 40 41 40 39 38 37 37 36 36 36 36 36 36 35 36 35 34 31 29 28 27 27 28 29 28 31 34 31 30 30 29 31 30 27 28 28 24 23 24 22 21 21 21 20 20
8 5 4 7 4 6 7 4 6 7 3 4 5 9 10 8 7 4 3 5 4 4 3 2 4 6 4 6 10 6 6 9 15 16 24 34 35 35 36 38 40 40 40 40 40 39 36 35 34 35 37 38 38 37 36 36 36 35 33 30 29 28 28 30 30 29 33 34 30 31 33 33 34 33 31 30 30 28 26 23 23 24 24 24 22 21
5 2 5 6 5 6 6 3 6 7 5 3 5 8 10 7 4 3 1 2 1 4 4 2 1 6 6 7 10 7 6 11 13 12 20 30 32 31 32 34 35 35 35 36 35 36 35 34 33 34 35 37 38 38 37 37 37 35 33 31 29 29 29 31 31 31 32 31 28 30 32 32 32 32 31 29 28 27 25 23 25 26 25 25 23 22
4 4 3 6 6 5 5 4 6 8 7 3 4 5 7 6 6 5 4 3 3 3 4 2 3 3 7 8 7 4 7 11 13 14 18 26 32 32 33 34 34 33 32 31 31 31 31 31 32 32 33 34 36 38 38 38 37 36 34 32 30 30 31 31 30 30 31 29 29 32 31 30 32 32 29 26 25 25 25 25 27 27 26 25 24 22
4 7 7 7 5 4 6 5 8 11 5 4 3 6 6 6 5 4 6 3 1 3 5 1 4 2 7 7 4 2 4 8 13 15 15 21 28 30 30 30 28 26 24 23 23 24 25 26 27 28 30 32 35 37 38 37 36 35 33 32 31 30 31 31 29 30 32 32 33 33 31 30 31 30 26 24 25 25 25 27 27 27 27 26 26 23
1 3 7 8 5 6 5 2 7 10 4 4 6 7 6 6 5 5 4 3 3 3 8 6 6 3 6 5 1 1 3 7 12 12 12 19 26 25 23 21 17 14 13 12 13 14 16 19 20 23 27 30 33 35 36 36 35 35 34 33 32 31 31 31 30 31 33 34 34 34 32 31 30 29 28 28 26 24 25 28 28 28 28 28 27 26
2 1 2 4 4 5 5 3 1 5 6 8 7 6 6 6 5 4 2 4 3 5 8 7 11 7 5 4 4 4 5 7 9 9 9 15 22 18 12 10 8 6 6 5 6 7 9 12 15 19 24 27 31 33 35 36 35 35 35 34 34 32 32 32 31 31 32 33 33 35 34 32 31 31 32 31 26 25 27 29 28 28 29 28 28 27
3 1 1 3 4 5 8 5 4 4 6 7 5 5 4 3 4 4 4 4 1 6 5 2 7 8 7 6 4 6 7 8 9 8 8 11 17 15 7 4 5 4 4 4 5 7 8 10 14 17 21 25 29 32 34 35 35 35 35 35 34 33 32 32 31 30 31 33 35 35 35 32 30 31 31 29 26 26 29 29 29 30 30 29 29 30
2 4 3 2 3 6 6 5 5 4 2 4 4 6 4 2 3 3 3 1 3 7 3 1 2 4 8 8 8 11 12 12 11 12 14 15 19 19 13 10 10 9 9 8 9 11 12 13 14 16 19 23 27 30 33 34 35 35 36 36 36 35 33 32 31 30 31 34 35 34 34 34 32 30 29 29 27 28 30 29 30 32 31 31 32 34
3 6 2 1 3 7 9 6 3 1 3 5 5 6 4 2 1 3 4 1 4 6 3 2 1 3 5 6 11 16 17 18 19 21 23 24 25 25 22 20 18 17 15 14 15 17 18 17 16 16 18 21 25 28 31 33 34 36 36 37 36 35 34 33 32 31 32 33 33 32 32 34 33 29 28 28 27 29 31 30 30 32 31 32 35 37
5 6 5 6 4 10 12 8 6 6 5 5 4 5 5 5 5 4 4 3 5 4 3 3 2 4 4 4 8 12 15 19 23 26 27 28 30 28 27 27 26 24 22 22 23 23 22 20 17 17 18 20 23 26 29 32 34 36 37 37 36 35 34 33 32 32 33 33 35 35 34 33 31 29 28 27 27 30 30 28 30 32 31 33 36 37
5 7 6 3 3 13 12 6 7 8 3 2 3 5 3 5 5 2 3 4 2 3 4 2 4 5 5 6 8 9 12 15 18 21 22 29 34 29 28 31 30 28 26 24 23 20 19 19 18 18 18 20 23 25 28 30 32 35 37 37 36 35 34 33 33 33 32 33 36 37 35 31 28 28 28 28 29 31 28 26 29 31 31 34 37 37
3 5 5 3 1 6 5 3 5 4 4 2 3 4 4 4 6 2 2 1 4 2 5 3 5 5 3 7 9 8 10 10 11 12 15 25 29 23 24 28 27 25 22 19 17 15 15 17 18 18 18 20 22 24 27 29 31 33 35 36 36 34 34 33 32 32 32 34 36 36 33 29 28 29 29 29 29 28 26 27 29 31 33 37 38 37
5 3 5 1 1 3 1 4 4 3 5 5 4 6 2 2 3 3 1 3 4 2 5 2 5 5 2 5 5 3 8 12 11 10 13 22 22 19 23 26 23 22 19 16 14 12 12 14 16 18 19 19 21 23 25 27 29 32 34 36 36 35 34 33 33 33 33 35 36 36 33 30 30 31 31 30 28 26 27 30 32 33 37 40 40 38
4 2 5 2 1 3 3 4 2 4 3 5 4 5 4 2 2 2 2 2 1 3 5 4 4 4 5 6 3 4 9 12 13 12 11 16 18 20 25 25 21 19 16 13 12 10 9 11 14 17 18 19 20 22 24 27 29 32 34 36 36 35 33 32 33 34 34 36 37 36 33 31 32 33 33 31 28 28 29 31 34 36 39 41 41 39
3 3 4 2 1 1 3 2 5 2 2 3 3 3 2 2 4 3 3 3 3 3 4 4 4 4 7 7 7 10 11 10 11 11 9 12 18 21 22 18 15 14 11 9 8 7 7 9 12 14 16 18 18 20 23 27 30 32 33 35 37 36 34 33 34 34 35 36 37 34 30 31 33 34 34 31 27 29 30 32 35 38 41 43 42 40
2 3 4 3 3 1 2 4 8 9 6 4 4 4 3 1 2 1 1 2 4 3 2 3 7 8 6 4 9 12 11 11 12 9 7 13 19 19 15 12 11 9 7 6 5 5 7 8 10 12 14 17 18 20 23 26 29 31 33 35 37 38 36 35 35 35 35 36 37 34 31 32 32 33 33 31 30 32 32 33 37 40 43 44 42 40
3 3 4 1 0 4 5 4 5 8 8 7 7 8 9 7 4 3 3 1 2 2 4 2 7 11 5 4 8 10 7 8 9 8 8 14 17 14 9 8 9 7 5 5 4 4 7 8 9 10 12 15 18 20 23 25 28 31 33 34 36 38 38 36 36 36 36 37 37 35 33 33 33 34 35 34 34 35 33 34 38 42 45 45 43 41
4 3 4 3 4 6 6 3 1 4 4 3 4 6 7 7 7 6 5 3 2 1 2 3 4 10 4 3 5 5 4 6 7 8 11 17 15 11 8 6 8 8 6 6 5 5 6 7 9 10 12 15 17 20 22 25 28 30 32 34 36 38 39 37 36 36 36 38 38 36 36 36 35 35 36 36 37 36 34 35 39 44 46 46 44 42
4 2 3 2 3 3 5 5 2 1 1 2 4 2 4 6 5 5 5 4 4 5 3 3 5 9 3 1 3 4 4 6 7 8 12 18 16 11 7 5 8 11 10 9 8 6 7 8 10 12 13 15 17 19 22 25 28 30 32 34 36 37 38 37 37 37 37 38 39 38 38 39 38 37 37 37 37 36 34 35 41 46 48 47 45 43
7 3 5 4 2 3 4 4 2 0 1 3 4 3 5 7 5 3 1 2 2 8 9 6 8 8 3 3 2 3 3 5 9 10 11 17 18 12 6 4 8 13 14 14 12 9 8 10 12 14 16 16 17 19 21 24 27 29 32 34 36 37 38 37 37 37 38 39 40 39 39 39 39 39 38 36 36 35 34 36 42 47 49 48 45 44
9 4 7 8 7 8 7 5 5 4 2 2 3 5 6 8 10 6 2 3 6 9 9 8 11 7 3 5 5 4 3 4 8 10 10 15 18 15 7 4 10 15 17 18 16 12 10 12 15 17 19 19 18 19 21 23 26 28 31 33 35 37 37 37 37 38 39 40 40 39 39 39 39 39 38 37 36 35 34 37 43 48 50 48 46 44
4 3 10 12 11 14 11 6 4 7 7 6 8 9 9 9 11 9 4 6 8 4 5 13 16 12 7 4 4 6 5 5 6 8 9 13 18 16 9 6 13 18 19 20 19 15 14 15 18 20 22 22 20 19 20 23 25 27 30 32 35 37 37 38 37 38 40 40 39 39 40 40 39 38 37 36 36 34 34 37 44 49 50 48 45 44
2 2 10 13 14 17 14 7 7 9 11 13 13 12 12 11 12 11 12 15 9 4 10 16 12 15 18 10 7 9 6 6 6 8 14 17 18 16 11 11 17 21 21 22 23 20 19 19 20 22 25 26 23 21 20 22 24 26 29 32 34 36 38 38 38 38 39 40 39 39 40 40 38 36 35 35 35 34 34 38 44 49 49 47 45 44
2 4 9 10 13 19 17 8 10 10 10 12 14 15 15 14 15 16 20 23 14 8 17 15 10 15 22 13 11 11 9 9 11 14 18 18 17 17 16 17 21 23 24 25 26 26 23 23 25 26 28 28 25 23 22 22 24 26 28 31 34 37 38 39 39 39 39 40 40 39 39 39 38 37 36 36 35 34 35 39 44 48 49 47 45 44
3 6 8 9 10 16 18 11 10 10 7 7 11 15 16 17 19 22 24 26 19 15 21 17 9 17 20 10 10 14 17 20 20 19 20 19 22 24 23 24 24 25 27 28 29 30 27 26 28 29 30 30 28 27 25 24 24 24 27 30 33 36 38 39 40 40 40 40 40 39 38 38 38 38 37 37 35 34 35 39 44 48 49 47 45 44
4 6 6 7 7 11 17 15 9 10 9 9 9 10 13 18 22 25 24 20 14 15 22 20 15 19 14 7 9 15 19 21 20 21 24 26 29 30 29 30 30 30 31 31 31 32 31 30 31 31 32 31 30 30 28 26 25 24 26 29 32 35 37 39 40 41 41 41 40 39 38 37 38 39 38 37 36 35 35 37 43 47 49 47 45 45
5 3 1 3 5 11 17 18 13 10 10 11 11 12 17 21 21 19 16 14 14 17 21 18 16 18 9 6 8 12 14 14 16 21 26 30 33 33 33 34 35 34 34 34 33 34 34 34 32 31 31 31 31 32 30 28 26 25 26 28 31 34 36 38 40 40 41 41 40 40 39 37 37 38 39 38 37 36 34 35 40 45 48 48 46 45
6 4 2 3 5 12 17 14 9 7 7 10 14 20 23 21 16 12 11 16 20 18 16 14 16 20 10 5 8 10 8 10 17 24 29 32 33 34 34 34 35 35 35 35 35 35 34 33 31 30 29 30 32 33 30 28 27 25 25 27 29 32 34 37 39 40 40 40 40 40 40 38 37 37 38 38 37 37 36 35 38 42 46 48 47 47
7 7 5 4 4 10 11 5 4 6 9 11 13 19 22 20 17 16 17 22 21 16 14 14 15 19 14 8 10 10 10 16 24 31 34 33 30 28 29 31 33 34 35 35 34 33 31 30 28 28 27 28 32 33 29 26 25 23 23 26 28 30 32 34 37 38 39 39 39 40 40 39 38 37 37 38 37 38 38 37 37 40 44 47 49 49
8 8 6 3 3 4 2 5 5 8 10 8 5 8 14 17 20 22 22 23 19 15 16 17 19 22 20 16 15 15 18 25 30 34 35 33 29 27 28 32 36 36 36 35 32 31 29 27 26 26 26 28 31 31 27 23 22 21 22 24 26 27 28 31 34 36 37 38 39 39 40 39 38 37 38 38 39 39 39 38 38 40 43 47 50 50
9 7 4 3 3 2 2 5 8 6 3 5 5 3 6 10 15 16 17 19 18 16 17 20 25 27 23 22 23 21 21 22 25 32 35 31 29 31 34 38 39 38 37 35 32 31 28 25 25 25 27 29 29 27 24 20 19 19 19 21 23 24 25 27 30 32 33 35 37 38 38 38 37 37 37 38 38 38 38 38 38 39 41 45 48 49
10 8 4 4 5 5 5 7 7 6 7 9 11 6 6 9 12 12 12 16 18 18 19 20 24 26 23 25 29 24 17 14 17 25 30 29 33 38 38 39 38 35 34 33 32 32 29 26 26 26 26 26 24 22 20 17 16 16 16 18 20 20 22 23 25 27 28 30 32 34 35 36 36 36 37 37 37 37 36 36 36 37 38 40 43 46
10 9 8 7 5 5 7 7 6 5 8 15 14 7 10 13 13 12 10 12 12 18 23 23 22 23 19 21 25 17 8 7 11 16 20 24 29 30 27 27 27 26 26 27 27 28 27 25 25 23 22 20 18 17 15 13 12 11 12 13 15 16 18 19 20 21 22 24 26 28 30 32 33 34 35 35 34 34 33 32 32 33 33 34 37 41
11 8 9 8 5 5 7 8 7 6 9 15 11 5 13 19 15 11 6 11 13 18 25 22 18 19 19 21 21 10 5 6 11 14 16 16 15 16 16 17 18 17 18 20 21 23 22 20 20 19 18 16 14 13 11 8 7 7 7 8 9 11 13 13 13 14 16 17 19 21 23 25 27 29 30 31 31 30 29 29 29 29 29 30 32 35
12 8 8 7 7 8 8 8 6 5 8 11 6 4 12 22 20 11 5 12 12 13 22 22 18 22 27 28 19 8 6 11 14 14 14 10 9 11 11 11 12 13 15 16 16 17 16 15 14 13 11 10 9 8 8 8 8 7 7 7 7 7 7 6 6 8 9 11 13 14 17 19 21 23 24 25 26 26 26 26 25 25 25 26 28 30
11 9 8 8 10 11 11 9 5 3 8 9 5 10 17 21 16 7 10 10 5 11 23 28 28 32 35 29 18 13 18 25 22 16 13 9 8 9 9 11 13 13 13 13 12 12 11 9 8 8 8 9 10 10 10 10 9 9 8 8 6 6 5 6 6 7 7 8 10 11 13 14 16 17 18 19 20 20 20 19 19 19 20 21 23 25
8 7 7 9 10 10 10 9 6 5 9 6 8 14 19 14 7 10 7 3 6 14 23 29 32 35 35 30 26 25 28 27 23 19 16 12 11 11 10 12 11 9 8 8 7 7 8 10 11 12 13 12 11 10 9 9 8 8 8 7 7 7 7 8 8 8 9 9 9 10 10 11 12 12 13 13 13 13 13 13 14 15 16 17 18 20
8 6 6 7 8 7 7 8 7 8 8 13 16 8 8 8 6 7 7 4 5 14 20 24 28 30 29 28 28 27 24 20 18 17 15 12 11 10 9 8 8 7 7 8 9 11 12 12 13 13 12 12 11 10 9 9 9 10 11 10 10 10 10 10 9 9 9 9 8 8 9 9 10 10 10 10 10 10 10 11 12 13 13 14 15 16
6 7 6 6 7 7 8 9 8 5 6 23 21 7 12 16 7 3 9 7 7 13 18 21 24 26 25 24 23 21 20 18 16 14 12 10 9 8 9 10 9 10 11 11 12 12 12 11 12 12 12 11 11 11 11 11 11 13 13 12 12 12 11 11 11 11 10 10 9 9 9 10 10 9 9 8 8 9 9 9 10 10 11 12 13 15
6 5 3 4 5 5 5 6 4 1 8 22 18 8 15 26 19 8 8 10 11 15 16 17 20 22 21 20 18 17 18 17 15 13 11 11 11 12 12 12 12 12 12 13 13 13 12 11 12 13 13 13 14 14 14 14 14 14 14 13 12 12 12 11 11 11 11 10 10 10 10 9 9 8 8 8 8 8 7 8 8 9 9 10 12 13
4 3 3 1 3 3 2 3 1 2 6 15 15 8 10 22 24 17 12 10 11 14 14 14 16 17 18 18 17 16 16 15 15 14 13 14 14 14 14 14 13 13 13 14 14 14 13 13 13 15 16 17 18 17 18 18 16 15 14 14 13 13 12 12 12 11 11 11 11 10 10 9 9 9 8 8 8 7 7 7 7 7 8 10 11 12
3 6 4 2 2 3 4 4 3 4 7 10 13 11 9 14 18 17 15 12 12 12 12 12 12 14 16 16 15 15 15 15 16 17 17 17 16 16 15 15 16 16 15 15 15 15 14 15 15 16 17 18 19 18 18 18 17 16 15 15 14 14 13 13 13 12 12 12 11 11 11 10 10 9 9 8 8 7 7 7 7 7 7 8 9 10
6 9 7 3 4 4 4 5 5 6 9 13 17 16 13 12 15 16 15 14 13 12 13 12 12 13 15 14 13 14 16 17 19 20 20 19 19 19 19 19 19 19 18 18 17 17 16 16 16 17 17 18 19 18 17 17 17 17 16 16 16 15 14 14 14 13 12 12 11 11 10 9 9 8 7 7 7 6 5 5 4 4 5 6 7 8
5 8 6 4 4 3 4 5 3 5 9 15 22 21 15 13 15 15 15 16 16 16 16 14 13 13 14 14 14 16 18 20 21 21 22 23 22 23 22 22 22 21 20 20 19 18 17 17 18 19 19 19 20 19 18 18 17 17 17 16 16 15 14 14 13 12 11 10 9 9 8 7 7 6 6 6 5 5 4 4 4 4 5 6 8 9
4 4 4 3 3 5 7 7 8 5 5 10 20 24 18 14 15 16 17 17 17 18 18 18 18 16 15 15 16 17 20 23 23 22 23 24 24 24 24 23 22 22 21 22 21 20 19 19 19 19 20 20 20 18 18 17 17 17 16 15 14 14 13 12 12 11 11 10 9 8 8 7 6 6 6 5 5 4 4 4 5 5 7 8 10 11
7 6 6 6 6 7 8 10 15 13 8 9 16 23 23 21 20 21 21 20 19 19 19 20 22 21 19 18 18 18 19 22 23 23 24 24 24 24 23 23 22 22 22 22 22 22 21 21 20 19 19 20 19 18 17 17 16 16 16 14 13 12 11 11 11 10 10 9 8 8 7 6 5 5 4 4 4 4 5 5 6 7 8 10 12 13
Wind_Direction
116 121 157 215 213 201 200 187 167 149 125 116 122 128 170 203 269 254 251 287 208 177 254 239 239 262 267 266 268 275 275 256 255 258 260 261 261 260 258 256 255 254 256 258 257 256 255 253 251 249 249 249 246 242 238 239 239 238 237 237 235 230 227 223 221 218 216 218 212 204 213 226 227 220 220 225 227 228 232 242 237 223 222 223 216 210
103 150 223 228 208 188 184 155 126 111 94 90 119 148 264 213 254 254 241 303 351 172 270 286 273 268 267 268 271 272 265 250 251 254 258 261 261 260 259 258 258 258 259 258 257 256 255 254 252 249 248 247 246 243 239 239 238 237 235 234 234 231 227 222 221 218 213 217 218 210 215 225 220 213 214 214 217 225 234 248 248 226 218 217 208 206
74 220 243 225 153 120 107 121 129 121 97 84 115 133 273 248 274 283 292 332 12 181 272 325 302 271 270 273 272 265 253 252 257 256 260 263 262 260 259 259 261 261 261 259 257 256 255 256 254 251 249 247 246 243 240 239 238 237 233 233 232 229 227 221 218 217 211 217 223 216 216 223 216 211 212 216 229 238 240 247 244 223 217 209 202 207
158 247 252 196 145 122 90 106 117 109 113 134 140 147 243 253 274 283 298 332 5 183 279 317 302 278 273 273 268 263 257 259 263 261 263 263 260 262 262 261 262 263 263 262 260 258 256 254 253 252 251 249 246 243 240 237 236 236 232 231 229 225 225 219 216 216 212 217 221 213 216 222 216 214 220 228 233 229 231 243 240 224 218 206 201 206
216 250 230 139 152 146 119 120 131 140 222 232 186 182 214 230 216 230 288 330 338 359 8 336 308 286 269 268 265 272 277 272 267 263 263 262 260 262 263 262 262 262 264 264 263 262 258 256 254 253 253 250 247 245 242 238 236 235 232 230 227 222 221 220 219 214 211 217 219 214 217 219 215 218 228 230 225 223 236 244 233 220 212 202 203 201
248 243 125 116 141 147 133 156 177 167 201 273 229 202 211 219 221 238 350 6 354 336 342 21 307 286 298 278 262 286 334 292 273 262 260 264 264 262 261 263 264 264 265 264 265 264 262 260 256 252 250 249 249 249 245 240 236 235 232 229 226 223 220 219 221 216 214 219 222 219 217 214 214 221 230 230 226 232 245 240 222 216 207 200 203 195
241 204 114 120 141 148 148 196 219 175 149 276 249 206 210 207 209 230 108 60 298 266 294 57 183 273 305 282 261 270 283 276 275 269 264 266 268 265 264 267 268 268 268 266 266 265 264 262 257 252 250 249 249 249 245 239 235 233 232 229 226 225 224 221 221 219 218 220 222 219 217 218 224 229 231 227 227 237 245 234 218 213 205 197 194 188
181 169 103 112 121 132 162 212 222 168 139 239 249 168 171 174 192 204 158 179 239 264 307 40 130 263 288 273 272 263 254 271 275 270 269 266 265 266 266 269 271 272 272 271 269 267 266 264 260 257 253 249 247 245 243 239 234 232 230 228 225 224 226 225 221 219 220 223 221 217 219 230 234 231 228 229 236 244 239 226 214 208 201 191 185 185
159 181 186 160 141 167 193 218 189 157 148 244 211 122 135 152 165 140 131 183 325 354 290 252 127 251 267 263 313 338 249 268 268 261 264 265 266 269 272 275 277 277 275 273 271 271 270 268 264 260 255 249 245 243 244 241 236 232 229 226 223 223 226 226 221 216 217 221 220 219 224 229 227 225 230 239 246 244 228 216 210 203 196 187 183 185
99 194 197 165 163 200 206 249 179 163 173 189 132 93 81 78 81 87 114 136 55 324 253 203 149 235 268 239 236 341 238 243 255 257 261 268 272 277 282 286 284 279 276 273 273 274 273 270 266 259 254 248 244 243 244 242 236 231 228 226 224 224 224 225 223 218 216 218 220 222 223 223 224 230 236 234 237 237 221 212 207 199 193 188 185 187
328 45 178 175 186 178 131 68 109 142 141 138 111 66 50 37 42 54 56 86 73 277 259 200 174 194 266 252 199 220 223 216 237 257 266 272 278 284 294 296 287 279 281 286 285 281 276 271 262 254 250 247 244 242 242 241 235 230 229 228 227 226 224 222 223 221 218 219 221 222 221 224 230 233 229 224 231 234 219 209 204 197 193 191 189 190
336 44 238 221 187 131 102 68 33 72 117 117 88 78 68 348 9 24 355 50 131 256 279 232 175 181 235 258 231 243 257 238 229 244 256 268 275 279 286 290 294 293 290 299 300 291 283 275 266 255 248 244 241 240 240 239 235 229 228 229 228 228 226 224 223 221 217 217 220 221 222 228 229 227 225 227 238 236 219 209 203 197 195 194 192 191
285 235 271 307 195 161 121 77 41 30 70 94 99 111 100 331 357 346 297 87 224 251 283 346 143 193 236 252 255 257 262 252 236 233 239 248 261 270 272 273 284 287 283 288 292 291 288 283 276 263 252 245 241 240 239 238 234 229 227 227 228 228 227 225 223 221 218 215 218 220 223 226 222 219 227 236 243 236 220 211 206 201 199 197 193 188
271 290 281 144 233 190 164 149 152 199 178 157 149 142 138 142 157 264 265 273 265 267 276 239 230 257 259 260 244 239 244 246 245 246 248 252 259 267 271 273 278 279 277 280 286 290 289 285 278 267 257 249 244 241 239 237 234 230 227 227 227 228 226 224 222 221 219 216 217 219 221 221 218 223 234 240 238 230 221 215 211 208 206 201 194 187
221 281 212 181 194 181 182 188 165 138 157 184 154 137 159 164 171 218 224 224 259 284 294 266 233 201 201 249 241 237 254 259 254 253 255 259 261 264 268 269 271 273 273 277 282 287 288 283 275 265 258 251 247 243 239 237 234 231 230 229 228 227 225 223 222 220 217 218 219 219 217 217 221 232 238 234 227 223 222 219 215 213 210 203 195 188
206 261 240 232 158 166 181 189 130 109 139 214 111 120 196 191 167 203 203 180 196 307 299 238 226 216 207 275 272 252 265 267 260 258 257 257 259 262 265 266 269 271 274 278 282 287 287 282 274 265 258 252 246 243 240 237 235 233 232 231 230 229 228 226 223 219 216 218 220 218 215 219 226 231 228 224 220 218 221 224 220 216 212 203 196 192
183 268 287 339 97 167 184 168 134 137 174 164 140 180 216 170 138 141 254 52 67 300 274 209 241 288 314 284 273 253 260 270 270 266 255 253 256 259 262 265 270 275 278 280 282 286 285 281 277 269 260 254 249 245 243 240 237 236 234 233 231 229 229 227 223 220 217 217 218 216 219 228 230 225 222 219 217 217 221 226 222 217 211 203 198 195
168 255 298 60 172 266 18 103 82 53 125 130 187 203 163 94 105 113 217 346 41 258 273 233 239 279 294 273 292 278 252 258 261 258 254 256 256 256 260 264 270 276 279 280 279 279 280 281 280 274 265 257 253 249 247 243 240 238 235 234 233 231 230 227 223 221 219 218 218 220 227 232 227 222 219 214 215 222 227 226 221 215 210 204 200 198
161 237 302 45 176 285 27 107 88 11 90 133 181 177 125 141 207 111 157 220 205 249 281 283 262 250 208 230 262 221 224 238 251 251 249 255 253 249 255 261 267 273 278 282 282 278 278 282 281 277 271 261 254 249 246 243 240 238 236 234 232 233 232 228 224 222 221 220 220 223 228 230 227 223 217 212 219 228 229 227 222 216 210 205 202 201
140 200 272 341 291 304 30 153 192 202 54 65 103 133 113 157 180 163 156 170 180 232 276 301 305 256 212 209 203 213 220 218 234 243 240 249 249 247 251 256 263 272 280 287 288 285 285 287 283 278 273 266 257 251 245 241 239 238 237 234 231 231 230 227 224 222 221 220 219 222 226 227 227 222 216 217 226 231 230 228 223 217 212 207 204 202
99 205 239 325 342 175 187 218 197 177 159 147 160 173 187 147 112 162 187 131 140 165 212 293 295 267 232 187 189 208 221 218 217 223 237 249 248 246 247 253 259 262 271 279 284 296 301 296 288 278 271 265 256 249 244 240 240 239 238 235 232 230 228 226 224 222 221 220 218 222 226 225 223 221 220 226 231 233 233 228 222 218 213 208 206 205
182 193 186 168 237 199 222 248 206 188 183 180 186 192 192 176 144 175 236 214 117 160 180 189 276 270 239 182 204 205 212 228 213 196 232 252 253 254 247 247 258 254 250 259 264 292 306 305 297 285 271 262 254 249 245 241 239 238 237 236 233 231 230 228 225 223 221 219 219 224 226 223 223 225 227 230 231 232 233 227 221 218 212 209 208 207
170 122 151 192 218 219 242 276 205 218 227 204 207 203 190 183 168 172 207 213 148 224 180 124 268 273 245 172 225 214 200 239 221 200 240 253 250 256 255 243 262 266 253 251 248 265 294 305 301 291 278 267 257 251 247 242 240 238 237 237 235 233 232 230 227 225 222 221 223 226 227 224 224 227 229 230 231 233 233 227 220 216 212 210 209 209
133 122 186 238 302 300 306 328 5 56 153 230 244 198 165 196 185 159 183 180 163 203 180 123 251 265 274 159 248 256 246 255 236 215 252 265 251 241 249 258 273 275 269 265 256 252 276 293 295 293 285 274 263 255 248 243 241 239 237 237 237 236 235 232 229 226 224 224 227 228 228 227 225 226 229 230 230 233 233 226 219 215 212 210 210 210
165 188 196 201 289 307 313 317 299 232 163 221 237 197 189 194 159 112 129 120 199 218 185 177 240 251 282 316 309 306 297 280 254 226 234 256 252 240 239 289 297 284 275 272 266 260 275 290 294 293 288 278 268 260 251 245 242 240 238 238 238 238 237 234 231 227 225 227 229 229 228 229 228 227 228 230 230 233 233 225 217 214 212 211 211 212
172 190 187 191 221 230 230 236 223 190 151 231 226 195 202 187 170 181 175 145 232 224 178 197 239 247 324 332 324 313 303 292 276 256 226 228 239 245 250 320 316 292 276 270 269 268 277 287 291 293 290 282 272 263 254 248 243 241 240 239 239 239 238 237 232 228 227 229 230 229 227 229 231 230 229 230 231 233 232 224 217 215 213 212 213 213
159 199 194 197 213 224 231 230 178 139 144 206 213 188 199 199 188 193 190 200 219 202 189 222 233 245 264 278 283 274 250 235 254 273 258 232 233 245 260 304 302 286 273 267 267 271 278 284 290 293 291 284 275 266 258 252 246 243 242 240 239 238 238 238 235 230 230 231 230 229 228 229 232 232 230 231 233 235 232 223 218 216 214 214 214 214
108 219 206 211 219 231 241 220 167 152 167 198 203 189 198 201 191 194 211 221 205 149 243 235 215 241 252 233 229 248 244 243 241 246 250 239 233 244 261 275 276 273 269 266 265 268 275 281 286 290 289 283 277 270 263 257 251 246 244 242 241 239 238 238 237 233 231 231 230 229 229 230 232 232 231 233 235 235 231 224 219 217 216 216 216 217
152 219 213 220 229 242 251 222 174 181 186 191 194 194 197 194 193 203 219 227 211 193 246 240 173 223 248 234 222 228 212 223 233 232 238 238 238 249 258 260 261 263 266 268 268 266 270 277 282 287 288 283 278 274 268 259 254 250 246 244 241 239 238 238 237 235 233 232 231 231 229 229 231 231 231 233 235 235 231 225 220 218 218 218 219 219
163 223 222 222 232 249 255 234 183 193 208 198 195 197 196 193 199 209 219 228 222 220 249 252 214 237 252 232 216 223 216 225 236 239 241 241 243 250 258 260 259 259 262 268 270 268 269 274 280 285 285 282 281 279 274 264 256 253 251 248 242 239 237 237 237 237 235 233 233 233 231 230 231 231 230 232 235 235 232 226 222 220 220 220 221 221
176 225 230 221 238 258 257 249 219 206 221 228 219 207 203 203 207 214 220 225 224 231 247 253 256 261 256 199 206 223 217 225 240 244 244 245 247 252 258 259 258 257 260 265 268 269 270 273 277 281 283 286 286 282 278 270 260 254 254 252 248 243 238 237 237 237 237 236 234 233 233 231 232 232 232 233 235 236 233 229 225 223 223 223 223 223
177 223 254 210 233 248 251 254 250 240 240 243 237 221 213 213 214 216 218 216 212 223 239 246 252 258 245 150 196 220 205 213 233 238 242 246 247 249 252 253 255 258 261 264 266 269 272 272 275 279 282 287 288 284 281 274 263 256 256 255 253 248 241 237 237 236 236 236 234 234 234 233 234 235 235 235 236 237 235 232 229 227 226 226 226 226
169 183 206 184 214 245 250 250 244 236 236 237 234 225 220 218 219 217 221 223 216 214 225 231 237 248 244 158 205 225 195 204 227 234 241 247 247 248 250 253 257 260 263 266 268 270 273 273 273 276 279 283 284 285 283 275 266 262 261 259 257 252 245 240 238 237 236 236 235 235 235 235 235 236 236 237 238 239 237 234 231 230 229 228 229 230
176 187 207 186 206 249 249 215 174 205 224 231 229 225 224 220 215 216 223 227 221 213 224 237 246 256 254 220 219 224 207 221 237 242 246 250 250 253 256 259 263 266 267 269 270 272 272 272 271 271 273 276 278 282 281 273 266 263 260 258 257 254 248 243 239 237 237 236 236 235 234 235 236 237 237 238 239 239 238 235 233 232 231 230 230 231
185 192 198 184 213 248 199 145 190 219 226 240 240 221 223 218 212 218 228 232 226 218 229 245 254 256 253 241 232 227 228 237 246 250 252 253 254 258 262 265 268 270 271 272 274 275 274 272 271 270 270 272 276 279 280 275 268 263 257 256 255 252 249 245 240 239 238 237 236 236 235 235 237 238 239 239 239 239 239 238 236 235 233 232 231 231
184 186 190 189 200 217 161 184 222 241 271 291 282 231 211 210 207 214 233 243 233 218 219 232 242 247 251 250 246 244 247 254 259 259 256 254 257 261 264 268 272 274 276 279 279 278 277 273 269 267 267 269 273 276 277 274 267 259 253 251 251 250 248 244 240 239 238 238 237 237 237 236 237 238 240 239 239 240 240 240 239 238 237 235 233 233
190 184 188 202 197 206 218 219 239 291 313 279 254 221 178 187 189 189 219 243 234 218 217 224 236 245 249 252 253 253 258 271 276 268 261 259 263 265 267 272 276 277 277 278 277 275 274 270 266 264 265 268 271 272 271 265 257 250 245 245 246 245 244 242 240 238 238 239 240 239 239 237 237 239 240 240 240 241 242 243 243 242 241 239 237 236
202 193 189 203 204 201 220 234 241 252 257 252 245 205 163 179 179 169 199 242 239 218 214 218 231 241 245 252 255 251 244 266 276 267 261 263 266 268 270 273 273 272 272 272 272 272 271 269 266 265 267 268 268 264 256 249 243 238 237 239 240 240 240 238 237 237 237 239 240 240 240 239 239 241 243 244 244 245 246 247 247 247 246 244 243 240
208 206 199 203 206 195 208 230 227 217 241 250 244 179 164 174 160 131 177 242 248 224 212 210 224 236 239 244 243 220 165 238 264 263 258 260 264 265 268 268 265 266 267 266 268 271 271 271 267 265 265 262 255 245 234 222 213 207 209 219 225 230 234 235 236 237 238 239 239 240 242 242 243 245 246 248 249 249 250 250 250 250 249 248 247 245
204 211 211 209 212 209 209 225 227 226 252 251 232 174 170 160 139 117 199 241 248 216 196 192 205 225 234 236 230 190 172 223 247 261 257 249 250 255 261 265 263 261 261 261 265 267 268 268 265 259 250 235 214 194 179 166 159 159 164 177 194 207 213 217 227 232 232 234 236 237 240 241 243 245 247 249 250 250 251 251 252 254 255 255 255 254
202 208 211 211 220 217 213 228 239 233 247 246 192 159 153 139 133 172 224 228 198 163 175 184 198 217 228 229 215 203 220 230 238 251 254 245 245 249 256 265 265 262 258 257 258 258 252 240 219 193 173 162 154 149 148 146 146 150 154 159 160 157 156 164 180 192 197 205 214 222 227 232 238 242 244 246 247 249 251 253 256 259 260 261 261 261
195 205 207 210 221 221 221 233 242 243 242 215 140 148 153 148 184 222 209 151 135 157 172 185 198 213 223 224 218 219 228 233 237 246 252 253 254 255 256 257 254 247 241 233 218 203 191 176 160 149 145 141 138 138 139 138 140 140 136 133 131 135 145 154 161 171 179 186 194 202 210 217 224 228 230 232 236 238 242 246 248 251 253 255 257 258
179 185 201 205 206 211 230 227 222 252 231 150 127 134 181 194 224 195 154 109 146 173 179 188 200 211 217 221 224 225 227 231 233 239 246 248 248 244 232 222 212 201 190 170 157 152 150 150 147 143 144 142 139 137 132 128 128 125 124 128 132 137 142 144 146 154 159 162 167 173 181 190 195 200 205 209 215 221 227 232 237 243 247 251 256 259
180 186 203 208 194 195 222 217 207 252 186 154 151 185 214 207 218 146 158 177 181 181 186 194 203 210 214 219 222 220 220 224 227 232 236 230 220 208 194 183 176 172 164 155 152 148 145 151 154 149 147 145 139 134 127 123 126 129 130 134 137 138 140 140 143 146 145 148 155 160 167 173 177 183 191 196 204 214 221 228 236 243 248 252 256 260
205 198 185 204 209 200 217 223 219 283 181 177 187 224 211 210 225 229 196 200 194 190 194 198 203 208 213 218 220 216 218 220 219 217 212 198 185 178 175 173 169 168 165 159 155 149 148 156 158 154 150 142 134 131 127 125 129 134 134 135 137 139 141 142 143 143 144 148 154 157 162 167 170 177 184 191 202 213 219 228 236 242 249 253 256 259
217 194 125 153 269 281 258 229 245 308 224 205 216 242 213 210 219 223 222 222 211 204 203 203 205 209 211 213 213 211 212 211 203 194 182 175 173 171 171 170 164 160 159 154 147 144 146 151 151 150 146 137 132 133 133 133 136 138 139 141 142 142 142 142 143 144 145 148 151 154 159 164 167 174 181 185 194 201 206 216 225 234 243 249 253 259
226 190 154 131 245 251 243 223 211 241 248 233 234 246 233 211 210 215 221 222 216 209 202 195 197 202 204 205 206 205 201 194 185 176 170 169 169 165 163 161 154 150 149 145 140 138 142 147 146 145 145 141 138 140 141 141 143 143 143 144 143 141 142 141 141 143 144 146 149 152 155 158 161 167 172 175 182 190 197 206 215 226 238 247 254 262
208 185 173 186 198 195 232 252 252 263 256 237 230 234 231 212 204 206 207 205 201 193 184 178 179 187 190 190 191 192 185 177 175 170 164 163 162 158 157 155 151 148 147 144 142 143 147 150 149 147 148 145 142 142 143 143 143 142 140 139 137 136 137 137 137 139 140 140 142 144 146 149 152 155 158 163 169 177 187 198 211 229 245 255 261 266
149 165 176 186 175 186 255 251 252 307 288 247 229 226 222 208 201 196 188 186 186 181 177 172 169 173 177 173 176 181 173 166 167 166 162 160 159 157 156 154 152 152 151 148 147 148 151 151 148 147 146 141 139 139 140 139 138 137 135 135 135 136 138 138 138 138 138 140 141 144 146 149 152 154 158 163 167 172 185 201 218 237 253 263 267 271
132 169 182 142 154 215 240 219 189 195 269 247 228 223 218 203 196 192 185 182 183 182 182 176 166 163 168 171 176 180 172 163 163 164 162 160 160 159 158 158 156 155 153 149 146 146 146 146 144 144 142 137 135 137 138 138 139 138 138 140 140 140 142 143 142 142 145 146 149 153 156 159 163 168 173 180 189 200 216 233 246 258 268 276 282 285
194 187 178 176 201 227 230 206 196 203 239 257 231 220 213 205 201 200 197 193 189 185 183 180 173 167 168 172 175 178 174 166 164 165 164 162 161 161 159 158 157 155 152 148 146 146 145 143 143 144 140 137 137 140 142 142 142 141 141 142 139 138 141 142 140 143 147 148 151 156 161 166 173 182 192 207 223 238 252 263 270 277 284 288 291 292